Weather in Mugi

Russia / Republic of Dagestan     42°17′58″N   47°25′19″E
temp.,
°C
wind,
m/s
gust,
m/s
humid.,
%
clouds,
%
prec.,
mm/h
press.,
hPa
HPBL,
m
28 november, sun
sun2800:00+3wsw222295 0.0 101810
03:00+3wsw2225100 0.0 101710
06:00+3wsw224096 0.0 101711
09:00+7sw113942 0.0 101634
12:00+10ene11238 0.0 1014481
15:00+9e113551 0.0 1014153
18:00+7sw114096 0.0 101410
21:00+6wsw214816 0.0 101410
29 november, mon
mon2900:00+5wsw225518 0.0 101411
03:00+5wsw225779 0.0 101412
06:00+4wsw22599 0.0 101512
09:00+8w11501 0.0 101660
12:00+11nne114067 0.0 1014465
15:00+10n115198 0.0 101436
18:00+7wsw22570 0.0 101612
21:00+7wsw33505 0.0 101625
30 november, tue
tue3000:00+8wsw4324100 0.0 101424
03:00+9wsw43227 0.0 101223
06:00+9sw5426100 0.0 100933
09:00+12sw5640100 0.0 100875
12:00+18wsw31127100 0.0 10041046
15:00+15sse2336100 0.0 100537
18:00+7se12642 0.0 100820
21:00+5s45724 0.0 100773
1 december, wed
wed100:00+9ssw55455 0.0 100153
03:00+12sw1222338 0.0 9971045
06:00+11sw132434100 0.0 9951230
09:00+11s113916 0.0 999116
12:00+12ssw39331 0.0 10001601
15:00+4e559398 0.0 1006460
18:00+1ese4597100 0.7 1010417
21:00−1e3398100 2.0 1012243
2 december, thu
thu200:00−2ene3396100 2.8 1014287
03:00−3nne2295100 4.1 1015267
06:00−3nne2395100 0.9 1017277
09:00−4nne1192100 1.6 1021269
12:00−2se238191 0.3 1021525
15:00−2se23765 0.3 1022414
18:00−6sw32864 0.0 102624
21:00−6sw32804 0.0 102721